Temperature
23 22 22 22 24 25 28 29 30 29 29 29 28 28 27 26 25 23 22 22 21 20 20 20 20 20 20 20 20 20 19 19 19 19 19 19 19 19 19 19 19 19 19 19 19 19 19 19 19
22 22 23 24 25 27 28 30 30 29 29 29 28 28 27 25 24 23 22 22 21 20 20 20 20 20 20 20 20 20 19 19 19 19 19 19 19 19 19 19 19 19 19 19 19 19 19 18 18
23 23 25 26 28 28 29 30 30 30 30 29 28 27 26 24 23 22 22 22 21 20 20 20 20 20 20 20 20 20 19 19 19 19 19 19 19 19 19 19 19 19 19 19 19 19 18 18 18
23 25 26 28 29 30 30 31 31 30 30 29 28 27 25 24 23 22 22 22 21 20 20 20 20 20 20 20 20 20 19 19 19 19 19 19 19 19 19 19 19 19 19 19 19 19 18 18 18
25 27 28 29 30 31 32 32 31 30 30 29 28 26 24 23 23 22 22 22 21 21 20 20 20 20 20 20 20 20 19 19 19 19 19 19 19 19 19 19 19 19 19 19 19 18 18 18 18
27 28 28 29 31 31 32 31 31 30 30 29 28 26 24 23 23 22 22 22 21 21 20 21 20 20 20 20 20 19 19 19 19 19 19 19 19 19 19 19 19 19 19 19 18 18 18 18 18
28 28 29 30 31 31 32 31 31 31 30 29 28 26 24 23 23 22 22 22 22 21 21 20 20 20 20 20 20 20 20 20 19 19 19 19 19 19 19 19 19 19 19 19 18 18 18 18 18
29 30 30 31 31 31 32 31 31 30 29 29 28 26 24 23 23 23 22 22 22 21 21 21 20 20 20 20 20 20 20 20 19 19 19 19 19 19 19 19 19 19 19 19 18 18 18 18 18
31 30 30 31 31 32 32 31 30 30 29 28 27 26 24 24 23 23 22 22 21 21 21 21 21 20 20 20 20 20 20 19 19 19 19 19 19 19 19 19 19 19 19 18 18 18 18 18 18
31 30 31 33 33 33 32 32 31 30 30 28 27 25 24 24 24 23 23 22 22 21 21 21 21 20 20 20 20 20 20 19 19 19 19 19 19 19 19 19 19 19 19 18 19 19 18 18 18
32 32 33 33 33 33 32 32 31 31 30 28 27 26 25 24 24 24 23 22 22 21 21 21 20 20 20 20 20 20 20 19 19 19 19 19 19 19 19 19 19 19 19 18 18 18 18 18 18
33 33 33 33 33 33 32 32 31 30 29 28 27 26 25 25 25 24 23 23 22 22 21 21 20 20 20 20 20 20 20 20 19 19 19 19 19 19 19 19 19 19 18 18 18 18 18 18 18
34 34 34 33 33 33 32 32 31 30 29 28 27 27 26 25 25 24 23 23 22 22 21 21 20 20 20 20 20 20 20 20 20 19 19 19 19 19 19 19 19 19 18 18 18 18 18 18 18
34 34 34 34 33 32 32 32 31 30 29 29 28 27 26 26 25 24 23 23 22 22 21 21 20 20 20 20 20 20 20 20 20 19 19 19 19 19 19 19 19 19 19 18 18 18 18 18 18
34 34 34 34 34 33 32 31 31 30 30 29 28 27 27 26 25 24 23 23 22 21 21 21 20 20 20 20 20 20 20 20 20 19 19 19 19 19 19 19 19 19 19 18 18 18 18 18 18
34 33 32 34 34 34 32 29 31 30 30 30 29 28 27 26 25 24 24 23 22 21 21 21 21 20 20 20 20 20 20 20 20 19 19 19 19 19 19 19 19 19 19 19 19 18 18 18 18
33 32 33 33 34 34 33 31 32 31 31 30 29 28 27 26 25 24 24 23 22 21 21 21 21 20 20 20 20 20 20 20 20 20 20 19 19 19 19 19 19 19 19 19 18 18 18 18 18
32 33 33 33 34 34 33 32 32 32 31 30 29 28 27 26 25 25 24 23 22 21 21 21 21 20 20 20 20 20 20 20 20 20 20 20 19 19 19 19 19 19 19 19 19 19 19 18 19
33 33 33 34 34 34 33 32 32 32 32 31 30 29 28 27 26 25 24 23 22 22 21 21 20 20 20 20 20 20 20 20 20 20 20 20 19 19 19 19 19 19 19 19 19 19 19 19 19
33 33 33 34 35 34 33 32 33 32 32 31 30 29 28 27 26 25 24 24 23 22 21 21 21 20 20 20 20 20 20 20 20 20 20 19 19 19 19 19 19 19 19 19 19 19 19 19 19
33 33 33 33 34 33 32 30 31 32 32 31 31 30 29 28 26 25 24 24 23 22 21 21 21 20 20 20 20 20 20 20 20 20 20 19 19 19 19 19 19 19 19 19 19 19 19 19 19
33 34 34 33 32 32 32 29 30 31 31 32 31 30 29 28 27 25 25 24 23 23 22 21 21 21 20 20 20 20 20 20 20 20 20 20 19 19 19 19 19 19 19 19 19 19 19 19 19
34 35 34 33 32 31 32 31 30 31 31 32 32 31 30 29 27 26 25 24 24 23 22 21 21 21 20 20 20 20 20 20 20 20 20 20 20 19 19 19 19 19 19 19 19 19 19 19 18
34 34 33 32 31 30 32 31 30 31 31 32 32 31 30 29 28 27 26 25 24 23 23 22 21 21 20 20 20 20 20 20 20 20 20 20 20 19 19 19 19 19 19 19 19 19 19 19 18
34 33 31 30 29 30 32 31 30 31 32 32 32 31 30 29 28 27 26 25 24 24 23 22 21 21 20 20 20 20 20 20 20 20 20 20 20 20 19 19 19 19 19 19 18 18 18 18 18
33 33 30 29 30 31 31 30 30 32 32 33 32 31 30 30 29 27 26 25 24 24 23 22 21 21 21 20 20 20 20 20 19 19 19 19 19 19 19 19 19 19 19 18 18 18 18 18 18
33 32 33 32 31 30 30 30 30 32 32 33 32 31 31 30 29 27 26 25 25 24 23 22 21 21 20 20 20 20 20 19 19 19 19 19 19 19 19 19 19 19 19 18 18 18 18 18 18
34 33 32 31 30 29 30 29 29 30 31 32 32 31 30 29 28 27 27 26 25 24 23 22 21 21 20 20 20 20 20 19 19 19 19 19 19 19 19 19 18 18 18 18 18 18 18 18 18
33 33 32 31 31 29 28 29 31 30 31 31 31 30 29 29 28 28 27 26 25 24 23 22 21 21 20 20 20 20 19 19 19 19 19 19 19 19 19 18 18 18 18 18 18 18 18 18 18
34 33 32 31 30 30 29 29 32 32 31 31 30 29 29 29 28 27 26 25 25 24 23 22 21 21 20 20 20 20 19 19 19 19 19 18 18 18 18 18 18 18 18 18 18 18 17 17 17
Wind_Speed
9 11 9 5 3 1 9 12 13 13 12 11 12 12 16 15 11 8 6 9 12 13 12 12 11 12 12 13 13 13 13 12 12 11 11 11 11 11 11 11 12 12 12 12 12 12 12 11 11
9 10 7 4 2 5 11 12 13 13 10 10 12 14 16 15 12 8 7 8 12 12 12 11 12 12 13 13 13 12 12 12 12 11 11 11 11 11 10 10 11 11 12 12 12 11 11 11 10
11 11 5 2 3 9 10 11 11 11 11 11 12 14 12 10 11 7 8 9 11 12 12 12 12 13 13 13 12 12 11 11 11 11 11 10 10 10 10 10 11 11 11 11 11 11 11 10 9
7 5 4 1 7 11 11 10 9 10 11 11 11 11 11 11 9 9 8 9 11 12 13 13 13 13 13 12 12 11 11 10 10 10 10 10 10 10 10 10 10 10 11 11 11 11 11 10 8
7 4 2 3 8 12 12 11 11 11 12 13 14 14 12 11 11 10 9 9 11 11 12 12 13 13 13 12 11 11 10 10 9 10 9 9 10 10 10 10 10 10 11 10 10 11 10 9 8
4 2 2 6 11 12 11 11 12 13 12 12 13 14 10 9 9 9 10 9 10 11 12 13 13 13 13 12 11 11 10 9 9 9 9 9 9 9 10 10 10 11 10 10 11 10 10 9 8
4 2 3 6 9 10 10 11 11 11 11 10 12 12 8 8 8 8 9 10 10 11 11 11 13 13 12 11 11 11 10 9 9 9 8 9 9 9 9 10 11 11 10 10 10 10 9 8 7
3 1 3 6 9 10 10 11 11 11 11 10 9 9 8 8 8 9 10 9 9 9 9 9 10 11 12 11 11 11 11 9 9 8 8 8 9 9 9 11 11 10 10 10 10 9 9 8 7
4 1 3 7 8 9 9 11 11 9 12 14 14 14 13 11 10 10 9 9 8 7 7 7 8 8 10 11 12 12 11 10 9 7 7 7 7 8 9 10 11 10 10 9 9 9 8 7 7
0 2 5 6 8 8 9 10 8 8 11 14 15 15 14 11 10 9 9 9 8 7 7 6 6 6 7 8 10 9 8 8 7 6 6 5 5 7 9 11 12 11 10 9 9 9 8 7 5
1 2 4 6 7 8 8 9 8 8 10 12 14 13 12 11 9 9 9 9 8 8 7 7 6 5 5 5 6 4 5 6 6 5 4 4 5 7 8 7 9 8 8 7 8 8 6 5 4
1 3 4 6 6 7 8 8 9 9 10 12 14 13 12 9 9 9 9 9 9 8 8 7 7 6 5 5 4 4 4 4 4 5 3 3 3 3 4 3 5 5 5 5 5 4 4 4 3
1 3 4 5 6 7 7 8 9 10 12 13 13 12 11 10 10 9 9 9 9 8 9 8 8 6 5 4 2 4 4 4 5 5 5 4 3 3 3 2 3 4 4 4 3 2 3 2 2
1 1 3 4 6 5 7 7 7 9 12 13 12 11 10 10 10 9 8 9 9 8 8 8 8 7 4 3 2 2 4 4 4 5 6 5 4 4 3 2 2 2 3 3 3 2 3 2 2
2 2 2 4 6 5 7 6 5 7 10 12 11 10 10 9 9 9 8 8 9 8 8 7 8 7 4 3 2 2 3 5 4 4 6 5 5 4 3 2 2 2 3 4 3 3 3 2 2
7 5 4 3 4 5 4 5 6 8 10 11 11 11 10 9 9 9 9 8 9 8 7 4 6 8 5 2 1 2 3 3 3 4 6 6 5 4 2 2 2 2 3 2 2 2 2 2 2
8 6 4 3 2 5 4 6 7 8 9 10 10 11 11 9 8 9 9 8 8 8 7 5 4 5 5 4 2 2 3 3 2 3 4 5 4 4 2 1 1 3 2 2 2 2 2 2 2
4 3 1 2 2 2 3 6 8 9 9 10 10 11 11 11 10 10 9 10 9 8 7 6 4 4 3 4 3 1 2 2 2 3 3 4 3 2 2 2 2 2 1 1 1 1 1 1 2
6 4 4 2 3 4 3 4 6 8 8 9 9 11 11 11 12 11 9 10 10 9 8 6 5 4 3 2 1 2 2 2 2 3 4 3 3 2 1 0 1 1 1 2 1 1 1 2 1
8 6 5 3 3 2 2 2 4 5 7 9 9 9 11 11 11 10 9 10 10 9 8 7 5 5 4 3 2 2 2 1 2 3 3 3 2 2 2 1 1 1 1 2 1 1 1 2 1
9 7 6 4 4 4 1 2 4 5 6 8 9 10 11 12 13 12 11 10 10 10 9 7 6 6 4 3 3 2 2 1 1 3 3 2 2 2 0 1 1 0 1 2 2 2 2 2 2
9 7 6 7 6 6 4 4 5 7 7 9 10 10 10 11 12 13 12 11 11 11 10 8 7 6 4 3 2 3 3 2 2 2 2 2 2 2 1 1 0 1 0 1 2 2 2 3 3
8 8 8 8 8 10 8 4 4 8 7 8 10 11 11 12 13 13 12 11 11 11 10 9 8 6 5 4 3 2 1 1 1 1 3 2 3 2 1 1 1 1 1 1 1 0 2 2 3
9 10 9 8 8 10 7 5 3 5 6 7 9 10 11 11 12 13 13 11 10 10 10 10 9 7 5 4 3 2 2 1 1 1 2 2 2 2 2 2 1 1 1 1 1 1 2 2 3
9 9 6 6 7 7 4 3 1 5 5 6 8 9 10 10 11 12 13 12 10 10 9 10 10 8 6 5 4 3 2 2 2 2 3 2 1 1 1 2 2 1 1 1 1 2 2 2 2
9 9 7 8 7 4 1 0 1 2 5 6 8 9 9 11 11 11 11 11 10 10 9 9 10 8 7 6 4 3 3 3 3 3 2 2 1 1 2 2 2 2 2 2 2 2 2 2 2
9 9 9 10 10 7 2 3 3 4 4 6 7 9 9 9 10 11 11 11 11 10 9 9 9 8 7 6 5 4 4 3 2 2 2 2 1 1 2 2 3 3 3 2 1 1 2 1 2
10 9 7 7 6 7 4 2 3 5 4 5 6 5 6 8 9 10 11 11 10 9 9 8 9 7 6 5 5 5 4 3 2 2 1 1 1 2 1 0 1 2 1 1 1 2 1 2 2
9 9 7 7 6 6 6 1 4 5 5 5 6 6 5 4 7 8 8 8 8 8 9 9 8 7 6 6 5 3 4 3 3 2 1 1 1 1 1 1 2 2 2 2 2 2 2 2 2
10 10 8 7 6 6 6 3 2 4 5 5 6 7 6 6 6 8 8 7 7 7 7 7 7 7 6 6 5 4 4 3 3 3 2 2 2 2 2 2 2 3 2 2 2 3 2 2 3
Wind_Direction
208 217 221 239 246 245 51 55 55 53 56 54 53 62 61 51 54 80 90 86 94 98 103 100 97 96 96 97 97 98 100 101 101 103 106 105 105 110 112 118 124 128 132 130 127 130 129 128 126
232 233 231 245 265 63 59 55 59 60 67 68 66 66 69 64 70 87 92 90 94 96 98 98 102 101 99 99 98 98 100 102 103 102 103 105 106 108 114 121 127 131 133 133 133 136 134 132 132
250 253 258 234 46 61 63 59 65 73 70 66 69 62 61 67 72 87 95 94 93 96 99 102 106 105 103 102 100 98 98 99 101 101 102 105 107 108 112 124 129 132 134 137 140 140 138 135 135
249 234 234 346 50 67 71 74 73 72 67 65 71 73 69 68 83 92 97 95 96 99 101 109 113 111 108 103 102 102 101 100 101 103 106 108 110 112 114 120 127 130 134 138 142 143 141 137 140
247 276 256 75 69 68 66 66 69 70 67 72 79 87 83 76 85 95 93 92 98 104 109 115 117 116 115 112 109 106 103 104 106 106 108 110 113 117 117 119 131 137 137 140 143 144 144 144 150
267 268 3 60 73 71 68 66 69 74 75 85 91 92 91 90 88 92 93 93 102 110 115 123 123 120 120 121 118 115 112 111 112 113 112 114 115 118 122 123 123 127 129 137 141 142 142 146 155
260 322 48 65 72 73 72 70 66 75 73 77 95 98 102 98 97 98 96 96 98 105 118 131 137 132 128 126 124 124 124 124 125 124 124 123 122 122 127 126 125 127 127 132 138 142 146 152 163
236 327 20 63 70 73 76 79 71 71 75 79 87 102 117 116 117 107 100 92 91 99 111 127 133 138 141 136 137 134 136 138 142 142 141 140 135 134 137 132 131 132 135 140 145 150 155 166 175
269 341 27 57 69 79 80 84 84 85 85 78 78 99 116 124 121 111 102 96 92 94 109 121 129 137 146 144 144 148 150 155 156 162 166 165 160 148 149 135 139 142 144 149 155 160 168 173 186
330 19 41 59 78 82 81 84 93 101 95 95 93 100 116 122 122 116 111 106 105 102 104 102 106 122 139 134 139 154 152 154 161 151 147 157 157 143 138 140 149 152 155 158 168 177 177 180 186
80 50 51 68 77 87 86 86 81 91 94 107 114 118 121 126 126 114 110 109 107 107 100 101 94 102 116 119 133 147 142 140 140 130 133 141 139 138 136 147 151 159 164 171 169 178 183 182 186
48 85 83 79 79 87 89 88 85 83 99 111 121 125 128 130 122 117 111 109 107 106 105 97 91 87 88 95 118 130 120 128 131 130 123 115 110 119 124 136 152 160 163 167 169 179 177 177 178
23 81 93 97 93 89 92 91 94 98 109 115 121 125 130 128 117 111 108 112 113 110 107 100 95 84 82 74 77 108 110 111 119 125 124 113 106 104 114 138 145 144 151 167 174 173 156 153 181
24 81 101 111 113 124 110 103 106 112 122 126 127 127 128 123 123 122 119 114 112 109 108 109 110 104 102 106 101 98 110 114 115 120 116 115 117 116 124 127 119 130 156 174 171 169 152 168 190
255 201 170 159 154 141 110 86 99 123 133 134 134 133 130 130 127 129 129 126 120 116 113 123 127 119 119 124 130 127 116 119 115 123 123 118 116 127 133 134 135 162 173 166 171 177 155 168 191
253 237 212 172 156 141 138 128 139 152 151 142 142 140 137 136 135 135 134 128 123 122 117 128 124 126 130 118 84 79 89 97 107 120 121 120 123 129 132 139 157 181 173 170 171 169 183 181 187
253 236 205 157 157 161 163 137 156 165 156 148 150 149 147 147 145 139 138 132 126 121 123 124 103 117 129 131 124 126 105 98 114 119 120 124 132 140 149 146 177 196 180 181 185 151 177 194 198
272 272 239 169 174 177 155 148 161 168 160 157 160 156 155 157 157 148 145 141 135 129 129 133 132 121 130 139 143 140 111 134 131 112 116 122 138 142 155 164 192 209 160 148 127 144 199 227 238
280 279 276 241 204 194 169 168 170 170 167 159 161 160 157 156 154 151 151 149 146 139 138 139 143 139 140 134 146 154 149 155 142 138 126 120 143 160 191 124 195 192 188 170 159 171 229 239 235
271 268 262 255 245 211 168 173 176 173 175 162 166 161 160 158 150 149 156 158 153 149 149 146 155 156 160 153 167 175 173 167 149 115 113 133 160 174 187 164 221 212 178 166 188 220 241 258 235
274 273 281 280 289 283 199 230 211 173 176 167 166 164 160 158 157 157 167 164 160 157 158 162 159 156 167 174 179 165 151 164 115 131 143 160 169 167 228 138 269 279 184 179 197 226 229 256 257
265 276 283 283 275 266 239 230 194 186 192 177 168 164 162 158 160 163 168 168 167 164 163 155 152 154 163 177 193 190 175 172 174 145 133 151 206 198 189 145 184 304 306 204 228 202 253 258 270
276 286 283 285 281 275 247 247 196 183 188 182 171 168 163 162 166 166 165 166 168 167 163 157 150 155 162 184 201 212 207 190 153 128 138 179 191 195 170 162 178 240 265 240 249 235 273 269 273
267 270 271 265 261 267 257 245 196 181 183 169 161 159 158 159 163 159 158 159 164 165 163 155 148 155 167 183 194 186 228 240 127 166 177 208 193 183 180 183 194 235 256 253 247 237 239 264 293
249 261 270 267 243 252 257 256 180 163 175 165 152 153 154 157 158 155 157 160 163 164 161 154 153 163 173 181 190 181 208 217 202 225 225 227 220 186 177 193 178 215 234 245 231 233 249 251 268
256 259 261 274 277 273 232 209 98 147 152 153 147 154 161 164 159 157 158 157 160 162 159 155 156 166 173 178 186 183 191 217 220 221 252 246 262 196 168 173 179 205 229 247 217 244 236 236 249
251 269 275 274 278 283 244 142 164 183 163 146 139 149 161 157 147 153 155 159 161 163 159 159 156 165 175 181 178 182 194 226 240 211 235 265 264 237 159 174 193 203 215 243 216 235 252 233 242
247 265 281 279 286 289 285 187 173 165 144 125 127 129 137 147 147 156 159 161 162 163 157 153 152 163 169 174 187 187 191 200 224 261 238 291 333 340 354 289 243 223 216 225 232 254 238 233 250
235 246 262 280 286 281 283 302 135 151 142 139 134 123 124 154 147 146 146 151 157 159 156 157 155 160 171 180 187 184 175 184 196 216 245 245 278 280 285 292 283 251 224 223 223 242 242 234 253
250 249 252 262 266 268 269 268 126 126 135 123 126 132 147 145 135 136 144 150 154 154 153 152 159 166 173 175 172 171 173 183 198 205 219 224 233 245 242 244 260 260 244 229 229 240 250 234 240
Height
1486 1486 1487 1490 1490 1488 1482 1474 1470 1471 1474 1476 1476 1477 1482 1485 1491 1502 1503 1501 1500 1499 1499 1499 1498 1498 1498 1498 1498 1499 1499 1500 1501 1503 1505 1506 1507 1509 1510 1512 1514 1517 1519 1521 1523 1525 1527 1529 1531
1486 1488 1491 1489 1488 1491 1485 1473 1473 1474 1476 1477 1479 1481 1485 1490 1495 1500 1501 1502 1502 1501 1501 1500 1500 1500 1500 1500 1501 1502 1503 1504 1505 1506 1508 1509 1510 1511 1512 1513 1515 1517 1520 1522 1524 1526 1528 1530 1532
1487 1489 1490 1485 1484 1486 1485 1475 1474 1475 1477 1478 1481 1485 1490 1496 1499 1501 1503 1503 1503 1502 1502 1502 1502 1503 1503 1503 1504 1505 1506 1507 1508 1509 1510 1511 1512 1513 1513 1515 1517 1518 1520 1522 1524 1526 1528 1530 1532
1489 1489 1487 1483 1483 1475 1474 1473 1474 1476 1478 1480 1482 1489 1496 1499 1501 1502 1503 1504 1504 1504 1504 1504 1504 1505 1505 1506 1506 1507 1509 1510 1511 1512 1513 1514 1514 1515 1515 1516 1518 1519 1521 1522 1524 1527 1529 1531 1533
1490 1488 1485 1485 1479 1473 1471 1473 1475 1477 1480 1483 1486 1493 1499 1502 1503 1504 1504 1505 1505 1505 1505 1505 1506 1507 1507 1508 1509 1510 1511 1512 1513 1514 1515 1516 1516 1517 1518 1518 1519 1520 1522 1524 1525 1528 1530 1532 1534
1489 1485 1489 1487 1479 1474 1474 1475 1477 1480 1483 1485 1489 1494 1502 1504 1504 1505 1505 1505 1505 1505 1506 1507 1507 1508 1509 1510 1511 1512 1513 1514 1515 1516 1517 1518 1518 1519 1520 1520 1521 1522 1523 1525 1527 1529 1531 1533 1535
1489 1485 1487 1482 1480 1478 1476 1478 1479 1481 1484 1486 1490 1496 1503 1505 1506 1506 1506 1506 1507 1507 1508 1508 1508 1509 1510 1512 1513 1514 1515 1516 1517 1518 1519 1520 1520 1521 1522 1522 1523 1524 1526 1527 1528 1530 1532 1534 1536
1484 1483 1484 1479 1481 1480 1477 1479 1482 1484 1487 1489 1491 1496 1503 1506 1506 1507 1507 1508 1508 1508 1509 1509 1510 1511 1512 1514 1515 1516 1517 1518 1519 1520 1521 1521 1522 1523 1524 1525 1526 1527 1528 1529 1530 1532 1533 1535 1536
1481 1485 1487 1480 1480 1479 1478 1480 1484 1486 1488 1491 1494 1498 1503 1505 1507 1508 1509 1509 1509 1510 1510 1511 1512 1513 1514 1516 1517 1518 1519 1520 1521 1522 1522 1523 1524 1525 1526 1527 1528 1529 1530 1531 1532 1533 1534 1536 1537
1480 1485 1481 1474 1474 1476 1479 1481 1483 1486 1489 1494 1498 1502 1504 1506 1507 1508 1509 1510 1510 1511 1511 1512 1513 1513 1515 1517 1519 1520 1521 1522 1523 1523 1524 1525 1526 1527 1528 1529 1529 1530 1531 1532 1533 1534 1535 1536 1537
1477 1480 1474 1474 1475 1477 1479 1482 1484 1486 1490 1495 1499 1503 1505 1507 1508 1509 1510 1511 1511 1512 1513 1513 1513 1513 1515 1518 1520 1522 1523 1523 1524 1525 1525 1526 1527 1528 1528 1529 1530 1531 1532 1533 1534 1535 1536 1537 1538
1475 1475 1475 1476 1477 1478 1480 1483 1485 1488 1492 1496 1500 1503 1505 1507 1508 1510 1511 1512 1513 1514 1514 1515 1515 1515 1516 1519 1521 1523 1524 1525 1526 1526 1527 1527 1528 1528 1529 1530 1531 1532 1533 1534 1535 1535 1536 1537 1538
1474 1474 1475 1476 1477 1479 1481 1483 1486 1490 1494 1497 1501 1504 1506 1508 1509 1511 1512 1514 1514 1515 1516 1516 1517 1517 1518 1520 1522 1524 1525 1526 1527 1527 1528 1528 1529 1529 1530 1531 1532 1533 1533 1534 1535 1536 1537 1538 1538
1475 1474 1475 1476 1478 1480 1481 1484 1487 1491 1494 1498 1501 1504 1506 1508 1510 1512 1514 1515 1516 1516 1517 1518 1519 1519 1520 1522 1523 1525 1526 1527 1528 1528 1529 1529 1530 1530 1531 1532 1533 1534 1534 1535 1536 1536 1537 1538 1538
1474 1475 1476 1474 1475 1477 1481 1487 1488 1491 1493 1497 1501 1504 1506 1509 1511 1513 1514 1515 1516 1517 1518 1519 1520 1521 1522 1523 1525 1526 1528 1528 1529 1529 1529 1530 1531 1531 1532 1532 1533 1534 1535 1535 1536 1537 1537 1538 1538
1474 1478 1482 1474 1472 1475 1483 1495 1488 1490 1492 1495 1499 1503 1506 1509 1511 1513 1515 1516 1517 1518 1519 1520 1522 1522 1523 1524 1526 1527 1528 1529 1529 1530 1530 1530 1531 1532 1532 1533 1533 1534 1535 1535 1536 1536 1537 1537 1537
1478 1483 1481 1475 1470 1472 1478 1488 1485 1487 1489 1493 1497 1501 1505 1508 1511 1513 1515 1516 1517 1518 1519 1520 1522 1523 1524 1525 1526 1527 1528 1529 1530 1530 1531 1531 1531 1532 1532 1533 1533 1534 1535 1535 1536 1536 1536 1536 1537
1485 1480 1477 1477 1471 1471 1476 1481 1480 1483 1486 1491 1495 1499 1503 1506 1510 1512 1514 1516 1518 1519 1520 1521 1522 1524 1524 1526 1527 1528 1529 1529 1530 1531 1531 1532 1532 1532 1532 1533 1533 1534 1534 1535 1535 1535 1536 1536 1536
1473 1476 1478 1473 1466 1470 1476 1478 1478 1480 1483 1487 1492 1495 1500 1504 1508 1511 1514 1516 1517 1519 1520 1521 1522 1524 1524 1526 1527 1528 1529 1529 1530 1531 1532 1532 1532 1532 1533 1533 1533 1534 1534 1534 1535 1535 1535 1535 1535
1472 1476 1476 1470 1465 1469 1475 1478 1476 1479 1481 1485 1489 1493 1497 1502 1506 1510 1513 1515 1517 1518 1519 1520 1522 1523 1524 1526 1527 1528 1529 1529 1530 1531 1531 1532 1532 1533 1533 1533 1533 1533 1533 1533 1533 1534 1534 1534 1535
1474 1475 1474 1474 1469 1468 1476 1487 1481 1477 1480 1483 1486 1490 1494 1499 1503 1507 1511 1514 1516 1517 1518 1520 1521 1523 1524 1526 1527 1528 1529 1529 1530 1530 1531 1531 1532 1532 1532 1532 1532 1532 1532 1532 1532 1533 1533 1533 1534
1478 1466 1467 1471 1478 1482 1479 1500 1487 1478 1479 1480 1483 1487 1491 1495 1501 1505 1508 1512 1514 1516 1517 1519 1520 1522 1523 1525 1526 1527 1528 1529 1529 1530 1530 1531 1531 1532 1531 1531 1531 1531 1531 1531 1531 1531 1532 1532 1532
1469 1464 1466 1471 1478 1483 1477 1489 1489 1476 1480 1477 1479 1483 1488 1492 1497 1502 1506 1509 1512 1515 1517 1518 1519 1521 1522 1524 1525 1526 1527 1528 1529 1529 1530 1530 1531 1531 1530 1530 1530 1530 1530 1530 1530 1530 1530 1530 1531
1463 1466 1469 1472 1480 1496 1480 1486 1489 1477 1476 1474 1476 1481 1485 1490 1495 1499 1503 1507 1511 1514 1516 1517 1518 1520 1521 1523 1524 1525 1526 1527 1528 1528 1528 1529 1529 1529 1529 1529 1529 1529 1529 1529 1528 1528 1528 1528 1529
1464 1476 1493 1499 1500 1496 1472 1481 1484 1469 1468 1470 1474 1479 1484 1489 1492 1497 1501 1505 1509 1512 1514 1515 1517 1518 1520 1521 1522 1524 1525 1526 1526 1527 1527 1528 1528 1528 1528 1528 1528 1528 1527 1527 1527 1527 1527 1526 1527
1466 1472 1495 1508 1501 1488 1476 1487 1480 1466 1467 1469 1473 1478 1482 1486 1490 1495 1499 1503 1507 1510 1512 1514 1515 1517 1518 1519 1521 1522 1523 1524 1525 1526 1526 1527 1527 1527 1527 1527 1526 1526 1526 1525 1525 1525 1525 1525 1525
1468 1471 1466 1478 1482 1491 1485 1482 1475 1467 1468 1468 1472 1476 1480 1484 1489 1493 1498 1501 1505 1508 1510 1512 1514 1515 1517 1518 1519 1520 1522 1523 1524 1524 1525 1525 1525 1525 1525 1525 1524 1524 1524 1524 1524 1523 1523 1523 1523
1460 1463 1470 1480 1496 1504 1493 1490 1487 1475 1471 1470 1473 1477 1481 1484 1488 1492 1496 1499 1503 1506 1508 1511 1512 1514 1515 1517 1518 1519 1520 1521 1522 1522 1523 1523 1523 1523 1523 1523 1523 1522 1522 1522 1522 1521 1521 1521 1521
1462 1466 1470 1475 1481 1500 1508 1497 1469 1471 1470 1472 1474 1478 1481 1486 1487 1491 1495 1499 1502 1505 1507 1509 1511 1512 1514 1515 1516 1518 1518 1519 1520 1520 1520 1520 1520 1521 1521 1521 1521 1521 1520 1520 1520 1520 1519 1519 1519
1456 1460 1466 1482 1488 1484 1494 1494 1464 1467 1470 1472 1475 1479 1482 1485 1488 1490 1494 1497 1501 1503 1505 1507 1509 1511 1512 1513 1514 1515 1516 1517 1517 1517 1518 1518 1517 1517 1518 1518 1518 1519 1518 1518 1518 1518 1517 1517 1517